Tracking 18032 objects as of 27-March-2017
HD Live streaming from Space Station
objects crossing your sky now

AZUR (GRS A)

Track AZUR (GRS A) now!
10-day predictions
AZUR (GRS A) is classified as:


NORAD ID: 4221
Int'l Code: 1969-097A
Perigee: 363.7 km
Apogee: 1,287.7 km
Inclination: 102.7 °
Period: 101.3 minutes
Semi major axis: 7196 km
RCS: 0.3339 m2 (medium)
Launch date: November 8, 1969
Source: Germany (GER)
Launch site: AIR FORCE WESTERN TEST RANGE (AFWTR)
Your satellite tracking list
Your tracking list is empty





NASA's NSSDC Master Catalog

Two Line Element Set (TLE):
1  4221U 69097A   17085.83306865 +.00002743 +00000-0 +13566-3 0  9990
2  4221 102.7012 273.9884 0641970 334.1697 022.8669 14.22048419237476
Source of the keplerian elements: AFSPC